Flag for U.S.A. Weather past 2 weeks in Pontiac, Michigan, U.S.A.

Now
22 °F

Light snow. Mostly cloudy.


Feels Like: 9 °F
Forecast: 14 / 28 °F
Wind: 14 mph from West

Location: Oakland County International Airport

Current Time: Mar 2, 2015 at 3:24:10 AM

Latest Report: Mar 2, 2015 at 2:53 AM


Visibility: 2 mi

Pressure: 30.24 "Hg

Humidity: 82%

Dew point: 17 °F

Location of PontiacLocation

Historic Weather in Pontiac — Graph

°F

Pontiac temperature yesterday

Maximum temperature yesterday: 25 °F (at 3:53 PM)
Minimum temperature yesterday: 12 °F (at 5:53 AM)
Average temperature yesterday: 19 °F

Past Weeks' High & Low Weather Summary

 TemperatureHumidityPressure
High26 °F (Feb 21, 3:53 PM)100% (Feb 27, 9:53 AM)30.78 "Hg (Feb 27, 9:53 AM)
Low-19 °F (Feb 20, 5:53 AM)36% (Feb 28, 4:53 PM)29.60 "Hg (Feb 24, 6:00 PM)
Average7 °F67%30.22 "Hg
* Reported Feb 15 1:53 AM — Mar 2 1:53 AM, Pontiac, Weather by CustomWeather, © 2015

Note: Actual official high and low records may vary slightly from our data, if they occured in-between our weather recording intervals... More about our weather records

Advertising

Pontiac weather history for previous 24 hours

 ConditionsComfort  
Time TempWeatherWind HumidityBarometerVisibility
1:53 AM
Mon, Mar 2
21 °FPassing clouds.12 mph81%30.22 "Hg9 mi
12:53 AM22 °FLight snow. Overcast.13 mph78%30.22 "Hg5 mi
11:53 PM
Sun, Mar 1
22 °FOvercast.16 mph78%30.23 "Hg10 mi
10:53 PM22 °FOvercast.10 mph75%30.23 "Hg10 mi
9:53 PM21 °FOvercast.8 mph71%30.22 "Hg10 mi
8:53 PM19 °FMostly cloudy.No wind71%30.22 "Hg10 mi
7:53 PM20 °FPartly cloudy.No wind71%30.23 "Hg10 mi
6:53 PM22 °FPassing clouds.6 mph66%30.23 "Hg10 mi
5:53 PM23 °FScattered clouds.9 mph63%30.23 "Hg10 mi
4:53 PM25 °FBroken clouds.12 mph60%30.25 "Hg10 mi
3:53 PM25 °FPartly sunny.7 mph60%30.26 "Hg10 mi
2:53 PM24 °FBroken clouds.6 mph62%30.27 "Hg10 mi
1:53 PM24 °FMore clouds than sun.6 mph62%30.29 "Hg10 mi
12:53 PM22 °FPartly sunny.3 mph68%30.32 "Hg10 mi
11:53 AM21 °FOvercast.6 mph74%30.34 "Hg10 mi
10:53 AM18 °FPartly sunny.6 mph80%30.37 "Hg10 mi
9:53 AM17 °FPartly sunny.No wind80%30.39 "Hg7 mi
8:53 AM15 °FIce fog.3 mph83%30.42 "Hg6 mi
7:53 AM14 °FLight snow. Ice fog.3 mph84%30.42 "Hg5 mi
6:53 AM13 °FLight snow. Ice fog.3 mph88%30.44 "Hg6 mi
5:53 AM12 °FLight snow. Ice fog.No wind88%30.44 "Hg5 mi
4:53 AM13 °FLight snow. Ice fog.No wind88%30.43 "Hg4 mi
3:53 AM13 °FLight snow. Ice fog.3 mph84%30.45 "Hg5 mi
Weather by CustomWeather, © 2015

See weather overviewHow to use our weather pages